Погода в Полтаве

Погода в Полтаве : погода сейчас, прогноз погоды и архив. Всё, что Вы хотите узнать о погоде в Полтаве!

Поиск расширенной информации на нашем сайте:

Другие новости

Новости СМИ2

Главная страница сайта

Новости сайта

03.07.2017

Напоминаем, что на нашем специализированном сайте Метеоцентр.Азия вы можете получить высокодетализированные автоматические прогнозы погоды по пунктам России, СНГ и мира в авиационном формате (включающие направление и скорость ветра, видимость, явления погоды, количество и форму облачности, нижнюю и верхнюю границу облачности).


Погода в Полтаве - сегодня

Время (UTC), дата Ветер
(°,м/с) 
Видим.   Явления Облачность Т
(°С)
Тd
(°С)
f(%) Тe
(°С)
Pmin
(гПа)
dP
(гПа)
Po
(мм)
O2
(г/м3)
Тmin Tmax R s Состояние
почвы
09 18.07.17 320 (СЗ) 10 км    5/4 600 м верхняя 
[Cu med, cong|Cc]
+24.4 +8.3 36 +24  1019.5  -0.7  751  276           
12 18.07.17 290 (З) 10 км    8/5 600 м верхняя 
[Cu hum|Cc]
+25.8 +8.4 33 +26  1018.4  -1  750  275           
15 18.07.17 310 (СЗ) 10 км    5/5 600 м 
[Cu med, cong]
+25.4 +7.2 31 +25  1017.4  -1  749  275           
18 18.07.17 320 (СЗ) 10 км    3/0 верхняя 
[Ci fib]
+20.4 +13 62 +26  1017.9  0.3  749  278           
21 18.07.17 300 (СЗ) 10 км    ясно 
+19.4 +11.4 60 +24  1018.3  0.3  750  280           
00 19.07.17 320 (СЗ) 10 км    ясно 
+16.2 +11 71 +21  1018.3  -0.2  750  283           
03 19.07.17 тихо ()   10 км    3/0 средняя 
[Ac trans]
+15.2 +10.7 74 +17  1018.4  750  284           
06 19.07.17 090 (В) 10 км    4/0 средняя 
[Ac trans]
+23.8 +12.2 48 +28  1018.4  0.5  750  276  +14.9  +3.2       
09 19.07.17 350 (С) 10 км    4/4 1000 м 
[Cu med, cong]
+26.5 +10.7 37 +29  1020.1  1.9  751  274           
12 19.07.17 020 (С) 88  0200 м    8/8 1000 м 
[Cu med, cong]
+11.3   1017.6  -2.4  750             
15 19.07.17 340 (С) 10 км    4/4 600 м 
[Cu med, cong]
+27.2 +12 39 +31  1015.4  -2.2  748  272           
18 19.07.17 330 (СЗ) 10 км    3/0 средняя 
[Ac cast]
+22.3 +13.5 57 +29  1016.5  0.8  749  276           
21 19.07.17 340 (С) 10 км    1/0 средняя 
[Ac cuf]
+19.2 +13.2 68 +26  1016.4  -0.3  748  279           
00 20.07.17 350 (С) 10 км    ясно 
+16.6 +12.6 77 +22  1016.2  -0.4  748  282           
03 20.07.17 360 (С) 10 км    4/0 средняя 
[As trans]
+16.7 +13.3 80 +24  1016  -0.1  748  281           
06 20.07.17 360 (С) 10 км    ясно 
+21.9 +14.8 64 +30  1015.5  -0.2  748  276  +16.5         
09 20.07.17 340 (С) 10 км    8/8 1000 м 
[Cu med, cong]
+25.2 +14.1 50 +32  1014.9  -0.4  747  273           
12 20.07.17 320 (СЗ) 10 км    8/8 1000 м 
[Cu med, cong]
+27.6 +11.7 37 +31  1013.4  -1.3  746  271           
15 20.07.17 290 (З) 10 км    3/3 1000 м 
[Sc]
+27.3 +10.2 34 +29  1012.9  -0.6  746  271           
18 20.07.17 360 (С) 10 км    3/3 600 м верхняя 
[Sc diur, vesp|Ci fib]
+22.8 +11.2 48 +26  1013.5  0.4  746  275    +28.3       
21 20.07.17 360 (С) 10 км    ясно 
+19 +10.7 59 +23  1014.3  0.5  747  279           
00 21.07.17 060 (СВ) 10 км    3/0 средняя 
[Ac trans]
+17.1 +11.8 71 +23  1014.1  -0.3  746  281           
03 21.07.17 тихо ()   10 км    4/0 средняя, верхняя 
[Ac trans|Ci]
+17.5 +13 75 +23  1014.3  0.2  747  280           
06 21.07.17 120 (ЮВ) 10 км    ясно 
+24.4 +14.3 53 +32  1014.6  0.8  747  274  +16.8         
09 21.07.17 230 (ЮЗ) 10 км    ясно 
+28.8 +12.5 37 +34  1014.6  0.2  747  270           
Время (UTC), дата Ветер
(°,м/с) 
Видим.   Явления Облачность Т
(°С)
Тd
(°С)
f(%) Тe
(°С)
Pmin
(гПа)
dP
(гПа)
Po
(мм)
O2
(г/м3)
Тmin Tmax R s Состояние
почвы

Для получения пояснительной информации подведите курсор к названию столбца.

ПОГОДА в Полтаве - архив

Всё, что Вы хотите узнать о погоде в Полтаве - удобно и подробно!

Выберите нужную дату (начиная с 1 января 2015* года) и нажмите кнопку "Найти".
Будут отображены архивные сводки погоды по пункту Полтава, начиная с указанной даты.


Отображать данные в формате CSV (для использования в таблицах Excel)


Внимание! Наш архив погоды предназначен исключительно для личного некоммерческого использования в познавательных целях. Если Вам необходимы официальные справки о состоянии погоды (для производственных, юридических, коммерческих и т.п. целей), обращайтесь в органы Росгидромета.

*Примечание: данная дата относится к архиву по метеостанциям СССР (Россия, СНГ, Балтия).
Архив по метеостанциям Зарубежной Европы и Азии (кроме Китая) хранится 10 дней, по другим регионам земного шара (Китай, Африка, Америка, Австралия, Океания) - 1 день.

Полтава - район местоположения метеостанции


Название, широта, долгота, высота метеостанции:
Полтава 49.6°ш. 34.6°д. 160 м над ур. моря [Украина]

Дополнительная информация

В oтличие oт бoльшинства пoгoдных сайтoв мы публикуем пoдрoбную метеoинфoрмацию в детальнoм прoфессиoнальнoм фoрмате.

Характеристики температуры и влажнoсти вoздуха измеряются на высoте 2 м в тени вдали oт зданий и деревьев.
Скoрoсть ветра измеряется на высoте 10 м (на урoвне рoста челoвека скoрoсть ветра ниже в 1.5-2 раза). Если метеoстанция нахoдится в гoрoде или в лесу, тo скoрoсть ветра занижена на 2-4 м/с пo сравнению с oткрытым местoм. Скoрoсть ветра над акватoриями крупных рек и oзёр, а также на вершинах хoлмoв на 2-5 м/с выше, чем в oбычных услoвиях.
Атмoсфернoе давление в разных тoчках местнoсти мoжет значительнo oтличаться oт давления на метеoстанции, в зависимoсти oт услoвий рельефа (при пoдъёме на 10 м давление пoнижается примернo на 1 мм рт.ст.).